Regional Weather Roundup
Issued by NWS

Home | Current Version | Previous Version | Graphics & Text | Print | Product List | Glossary On
Versions: 1 2 3 4 5 6 7 8 9 10 11 12 13 14 15 16 17 18 19 20 21 22 23 24 25 26 27 28 29 30 31 32 33 34 35 36 37 38 39 40 41 42 43 44 45 46 47 48 49 50
000
ASUS43 KOAX 242010
RWRNE

WEATHER ROUNDUP FOR NEBRASKA
NATIONAL WEATHER SERVICE OMAHA NE
300 PM CDT FRI APR 24 2015

NOTES: SATELLITE DATA IS BEING USED TO AUGMENT CLOUD COVER ABOVE
       12000 FEET.
       "FAIR" INDICATES FEW OR NO CLOUDS BELOW 12,000 FEET WITH NO
       SIGNIFICANT WEATHER AND/OR OBSTRUCTIONS TO VISIBILITY.

  * THESE STATIONS DO NOT REPORT WEATHER SUCH AS RAIN...SNOW OR FOG.

NEZ001>004-019>022-054>056-242100-
NEBRASKA PANHANDLE

CITY           SKY/WX    TMP DP  RH WIND       PRES   REMARKS
SCOTTSBLUFF    MOSUNNY   71  36  27 NW8       29.57F
ALLIANCE       MOSUNNY   69  40  34 W10       29.56F
CHADRON        MOSUNNY   69  43  38 VRB7      29.56F
KIMBALL        PTSUNNY   58  36  43 SW9G18    29.62R
SIDNEY         MOSUNNY   68  37  32 NW9       29.60F
$$

NEZ057>060-069>072-079>082-242100-
SOUTHWEST NEBRASKA

CITY           SKY/WX    TMP DP  RH WIND       PRES   REMARKS
IMPERIAL       MOSUNNY   68  50  52 E8        29.58F
LEXINGTON      PTSUNNY   67  55  65 S6        29.57F
MCCOOK         CLOUDY    67  53  61 VRB3      29.57F
OGALLALA       PTSUNNY   71  51  49 SE5       29.56F
$$

NEZ005>010-023>029-035>040-094-242100-
NORTH CENTRAL NEBRASKA

CITY           SKY/WX    TMP DP  RH WIND       PRES   REMARKS
VALENTINE      MOSUNNY   73  38  27 S7        29.53F
AINSWORTH      MOSUNNY   76  38  25 SW5       29.53F
BROKEN BOW     MOSUNNY   70  53  54 S10       29.57F
O`NEILL        MOSUNNY   74  52  44 S13G20    29.54F
ORD            SUNNY     69  53  56 S13       29.56F
THEDFORD       MOSUNNY   76  41  28 SW6       29.55F
$$

NEZ041-046>049-061>064-073>077-083>087-242100-
SOUTH CENTRAL NEBRASKA

CITY           SKY/WX    TMP DP  RH WIND       PRES   REMARKS
GRAND ISLAND   CLOUDY    63  55  75 S6        29.60F
AURORA         PTSUNNY   64  57  76 S7        29.60F
HASTINGS       CLOUDY    61  56  83 SE10      29.59F
HEBRON         CLOUDY    61  55  78 SE8       29.60F
HOLDREGE       PTSUNNY   65  54  67 SE13      29.58F
KEARNEY *      PTSUNNY   64  55  72 S8        29.59F
YORK           CLOUDY    63  55  77 S8        29.61F
$$

NEZ011>018-030>034-042>045-242100-
NORTHEAST NEBRASKA

CITY           SKY/WX    TMP DP  RH WIND       PRES   REMARKS
NORFOLK        SUNNY     71  55  56 S15       29.58F
ALBION         MOSUNNY   68  54  60 S10G20    29.59F
BLAIR          CLOUDY    65  52  61 S13       29.63F
COLUMBUS *     CLOUDY    66  54  63 SE10      29.62F
FREMONT        CLOUDY    67  54  61 SE9       29.62F
TEKAMAH        LGT RAIN  70  54  56 S12       29.61F
WAYNE          MOSUNNY   75  54  47 S17       29.59F
$$

NEZ050>053-065>068-078-088>093-242100-
SOUTHEAST NEBRASKA

CITY           SKY/WX    TMP DP  RH WIND       PRES   REMARKS
LINCOLN        CLOUDY    64  55  72 S13       29.63F
OMAHA EPPLEY   CLOUDY    67  53  61 SE15      29.63F
BEATRICE       CLOUDY    62  55  75 S10       29.63F
FALLS CITY     CLOUDY    61  51  70 S15       29.66F
NEBRASKA CITY  CLOUDY    60  47  60 SE9       29.65F
PLATTSMOUTH    CLOUDY    66  49  54 SE10G17   29.64F
$$

NEZ044-045-051>053-067-242100-
OMAHA AREA

CITY           SKY/WX    TMP DP  RH WIND       PRES   REMARKS
OMAHA EPPLEY   CLOUDY    67  53  61 SE15      29.63F
BLAIR          CLOUDY    65  52  61 S13       29.63F
FREMONT        CLOUDY    67  54  61 SE9       29.62F
MILLARD        CLOUDY    67  54  63 SE12      29.62F
OFFUTT AFB     CLOUDY    67  53  60 S10       29.63F
PLATTSMOUTH    CLOUDY    66  49  54 SE10G17   29.64F
WAHOO          CLOUDY    67  52  58 S12       29.62F
$$


USA.gov is the U.S. government's official web portal to all federal, state and local government web resources and services.